Vancouver, WA

7:06 PM PST on February 19, 2017 (GMT -0800)
Pearson

Weather History for KVUO - July, 2013

Change the Weather History Date:

Tuesday, July 23, 2013

  Actual Average Record
Temperature  
Mean Temperature 73 °F 70 °F  
Max Temperature 88 °F 81 °F 103 °F (2004)
Min Temperature 58 °F 58 °F 43 °F (1979)
Degree Days  
Heating Degree Days 0    
Month to date heating degree days 6  
Since 1 June heating degree days 62  
Since 1 July heating degree days 6  
Cooling Degree Days 8    
Month to date cooling degree days 105  
Year to date cooling degree days 172  
Since 1 June cooling degree days 160  
Growing Degree Days 22 (Base 50)    
Moisture  
Dew Point 57 °F    
Average Humidity 64    
Maximum Humidity 93    
Minimum Humidity 34    
Precipitation  
Precipitation 0.00 in 0.01 in 0.52 in (2014)
Month to date precipitation 0.00 0.59  
Year to date precipitation 14.98 20.96  
Snow  
Snow 0.00 in - - ()
Month to date snowfall 0.0  
Since 1 June snowfall 0.0  
Snow Depth 0.00 in    
Sea Level Pressure  
Sea Level Pressure 29.99 in    
Wind  
Wind Speed 5 mph (NNW)    
Max Wind Speed 14 mph    
Max Gust Speed 21 mph    
Visibility 10 miles    
Events      
T = Trace of Precipitation, MM = Missing Value Source: NWS Daily Summary

Daily Weather History Graph

Daily Weather History Graph

Search for Another Location

Airport or City:

Trip Planner

Search our weather history database for the weather conditions in past years. The results will help you decide how hot, cold, wet, or windy it might be!

Date:

Astronomy

Jul. 23, 2013 Rise Set
Actual Time 5:44 AM PDT 8:49 PM PDT
Civil Twilight 5:09 AM PDT 9:24 PM PDT
Nautical Twilight 4:23 AM PDT 10:09 PM PDT
Astronomical Twilight 3:27 AM PDT 11:04 PM PDT
Moon 9:11 PM PDT (7/23) 7:06 AM PDT (7/23)
Length of Visible Light 16h 15m
Length of Day
15h 04m
Full, 98% of the Moon is Illuminated
Jul 23
Full
Jul 29
Last Quarter
Aug 6
New
Aug 14
First Quarter
Aug 20
Full

Hourly Weather History & Observations

Time (PDT) Temp. Heat Index Dew Point Humidity Pressure Visibility Wind Dir Wind Speed Gust Speed Precip Events Conditions
12:53 AM 64.9 °F - 57.0 °F 75% 30.00 in 10.0 mi Calm Calm - N/A   Clear
1:53 AM 63.0 °F - 57.0 °F 81% 30.00 in 10.0 mi NW 3.5 mph - N/A   Clear
2:53 AM 62.1 °F - 55.9 °F 80% 30.00 in 10.0 mi Variable 4.6 mph - N/A   Clear
3:53 AM 60.1 °F - 55.9 °F 86% 30.01 in 10.0 mi Calm Calm - N/A   Clear
4:53 AM 57.9 °F - 55.0 °F 90% 30.02 in 10.0 mi Calm Calm - N/A   Scattered Clouds
5:04 AM 59.0 °F - 55.4 °F 88% 30.02 in 10.0 mi Calm Calm - N/A   Mostly Cloudy
5:53 AM 60.1 °F - 55.9 °F 86% 30.03 in 10.0 mi NNW 4.6 mph - N/A   Overcast
6:53 AM 61.0 °F - 57.0 °F 87% 30.03 in 10.0 mi Calm Calm - N/A   Overcast
7:53 AM 61.0 °F - 57.0 °F 87% 30.04 in 9.0 mi NE 3.5 mph - N/A   Overcast
8:53 AM 62.1 °F - 57.0 °F 84% 30.05 in 10.0 mi NE 3.5 mph - N/A   Overcast
9:53 AM 63.0 °F - 57.0 °F 81% 30.05 in 10.0 mi North 4.6 mph - N/A   Overcast
10:40 AM 64.4 °F - 57.2 °F 77% 30.03 in 10.0 mi East 5.8 mph - N/A   Overcast
10:53 AM 66.9 °F - 57.9 °F 73% 30.03 in 10.0 mi ENE 4.6 mph - N/A   Mostly Cloudy
11:09 AM 66.2 °F - 59.0 °F 78% 30.03 in 10.0 mi Variable 3.5 mph - N/A   Scattered Clouds
11:53 AM 70.0 °F - 59.0 °F 68% 30.02 in 10.0 mi SW 4.6 mph - N/A   Clear
12:53 PM 78.1 °F - 57.9 °F 50% 29.99 in 10.0 mi Variable 3.5 mph - N/A   Clear
1:53 PM 82.0 °F 82.0 °F 57.9 °F 44% 29.97 in 10.0 mi North 8.1 mph - N/A   Clear
2:53 PM 84.0 °F 83.5 °F 57.9 °F 41% 29.96 in 10.0 mi Variable 5.8 mph - N/A   Clear
3:53 PM 86.0 °F 85.0 °F 57.9 °F 38% 29.94 in 10.0 mi NW 6.9 mph - N/A   Clear
4:53 PM 88.0 °F 86.9 °F 57.9 °F 36% 29.93 in 10.0 mi NW 10.4 mph 18.4 mph N/A   Clear
5:53 PM 88.0 °F 86.5 °F 55.9 °F 34% 29.92 in 10.0 mi NNW 9.2 mph - N/A   Clear
6:53 PM 87.1 °F 86.5 °F 59.0 °F 39% 29.92 in 10.0 mi NW 12.7 mph 17.3 mph N/A   Clear
7:53 PM 84.0 °F 83.8 °F 59.0 °F 43% 29.94 in 10.0 mi NW 8.1 mph - N/A   Clear
8:53 PM 81.0 °F 81.3 °F 59.0 °F 47% 29.95 in 10.0 mi NNW 10.4 mph - N/A   Clear
9:53 PM 75.9 °F - 60.1 °F 58% 29.97 in 10.0 mi NW 4.6 mph - N/A   Clear
10:53 PM 73.9 °F - 57.9 °F 57% 29.99 in 10.0 mi NNW 4.6 mph - N/A   Clear
11:53 PM 71.1 °F - 55.9 °F 59% 30.00 in 10.0 mi Calm Calm - N/A   Clear